Weather History for KAMA - April, 2014

Change the Weather History Date:

Wednesday, April 2, 2014

  Actual Average Record
Temperature  
Mean Temperature 65 °F 52 °F  
Max Temperature 85 °F 67 °F 88 °F (1927)
Min Temperature 44 °F 37 °F 14 °F (1936)
Degree Days  
Heating Degree Days 0 13  
Month to date heating degree days 11 26  
Since 1 July heating degree days 3923 3835  
Cooling Degree Days 0 0  
Month to date cooling degree days 0 0  
Year to date cooling degree days 0 2  
Growing Degree Days 16 (Base 50)    
Moisture  
Dew Point 12 °F    
Average Humidity 28    
Maximum Humidity 52    
Minimum Humidity 4    
Precipitation  
Precipitation 0.00 in 0.04 in 0.86 in (1922)
Month to date precipitation 0.00 0.09  
Year to date precipitation 0.59 2.76  
Snow  
Snow 0.00 in 0.00 in 0.50 in (1949)
Month to date snowfall 0.0 0.1  
Since 1 July snowfall 12.4 17.0  
Snow Depth 0.00 in    
Sea Level Pressure  
Sea Level Pressure 29.59 in    
Wind  
Wind Speed 17 mph (SSW)    
Max Wind Speed 31 mph    
Max Gust Speed 38 mph    
Visibility 10 miles    
Events      
T = Trace of Precipitation, MM = Missing Value Source: NWS Daily Summary

Daily Weather History Graph

Daily Weather History Graph

Search for Another Location

Airport or City:

Trip Planner

Search our weather history database for the weather conditions in past years. The results will help you decide how hot, cold, wet, or windy it might be!

Date:

Astronomy

Apr. 02, 2014 Rise Set
Actual Time 7:32 AM CDT 8:09 PM CDT
Civil Twilight 7:06 AM CDT 8:34 PM CDT
Nautical Twilight 6:36 AM CDT 9:04 PM CDT
Astronomical Twilight 6:05 AM CDT 9:35 PM CDT
Moon 9:24 AM CDT (4/2) 11:27 PM CDT (4/2)
Length of Visible Light 13h 28m
Length of Day
12h 37m
Waxing Crescent, 10% of the Moon is Illuminated
Apr 2
Waxing Crescent
Apr 7
First Quarter
Apr 15
Full
Apr 22
Last Quarter
Apr 29
New

Hourly Weather History & Observations

Time (CDT) Temp. Dew Point Humidity Pressure Visibility Wind Dir Wind Speed Gust Speed Precip Events Conditions
12:53 AM 53.1 °F 36.0 °F 52% 29.71 in 10.0 mi SE 16.1 mph - N/A   Clear
1:53 AM 50.0 °F 33.1 °F 52% 29.69 in 10.0 mi SSE 11.5 mph - N/A   Clear
2:53 AM 52.0 °F 25.0 °F 35% 29.66 in 10.0 mi SSW 13.8 mph - N/A   Clear
3:53 AM 48.0 °F 19.9 °F 33% 29.66 in 10.0 mi SSW 11.5 mph - N/A   Clear
4:53 AM 55.9 °F 10.0 °F 16% 29.62 in 10.0 mi South 15.0 mph - N/A   Clear
5:03 AM 51.1 °F 14.0 °F 23% 29.74 in 10.0 mi SSW 18.4 mph 27.6 mph N/A   Clear
5:53 AM 48.9 °F 12.9 °F 24% 29.64 in 10.0 mi SW 16.1 mph - N/A   Clear
8:53 AM 59.0 °F 10.0 °F 14% 29.68 in 10.0 mi SW 12.7 mph - N/A   Clear
9:53 AM 66.0 °F 10.9 °F 12% 29.68 in 10.0 mi SSW 15.0 mph - N/A   Clear
10:53 AM 73.9 °F 5.0 °F 7% 29.66 in 10.0 mi SW 21.9 mph 28.8 mph N/A   Clear
11:53 AM 78.1 °F 1.0 °F 5% 29.63 in 10.0 mi SSW 19.6 mph 28.8 mph N/A   Clear
12:53 PM 80.1 °F 3.0 °F 5% 29.61 in 10.0 mi South 16.1 mph 26.5 mph N/A   Clear
1:53 PM 82.0 °F -0.0 °F 4% 29.58 in 10.0 mi WSW 20.7 mph 27.6 mph N/A   Clear
2:53 PM 84.0 °F 1.0 °F 4% 29.54 in 10.0 mi SW 16.1 mph 29.9 mph N/A   Clear
3:53 PM 84.0 °F 5.0 °F 5% 29.51 in 10.0 mi SSW 20.7 mph 32.2 mph N/A   Clear
4:53 PM 84.2 °F 6.8 °F 5% 29.62 in 10.0 mi South 27.6 mph 35.7 mph N/A   Clear
5:53 PM 82.0 °F 8.1 °F 6% 29.47 in 10.0 mi SSW 21.9 mph 36.8 mph N/A   Clear
6:53 PM 80.1 °F 8.1 °F 6% 29.48 in 10.0 mi SW 24.2 mph 35.7 mph N/A   Clear
7:53 PM 75.9 °F 9.0 °F 8% 29.49 in 10.0 mi SSW 20.7 mph 27.6 mph N/A   Clear
8:53 PM 72.0 °F 8.1 °F 8% 29.49 in 10.0 mi SSW 19.6 mph - N/A   Clear
9:53 PM 70.0 °F 10.9 °F 10% 29.51 in 10.0 mi SSW 18.4 mph 27.6 mph N/A   Clear
10:53 PM 70.0 °F 12.0 °F 11% 29.49 in 10.0 mi SSW 18.4 mph 27.6 mph N/A   Clear
11:53 PM 66.9 °F 12.0 °F 12% 29.49 in 10.0 mi SW 16.1 mph - N/A   Scattered Clouds